EW2997 Weather Reports


time (UTC)temp
F
wind
direction
speed
knots
gust
knots
rain 1hr
in
rain 24hr
in
rain mn
in
humidity
%
barometer
mb
20260508195759 62 358 4.3 5.2 0.00 0.00 0.00 45 1014.9
20260508192756 65 132 1.7 1.7 0.00 0.00 0.00 43 1015.2
20260508185755 63 317 4.3 5.2 0.00 0.00 0.00 41 1015.2
20260508182754 64 0 1.7 1.7 0.00 0.00 0.00 40 1015.2
20260508175752 64 258 7.8 8.7 0.00 0.00 0.00 42 1016.0
20260508172750 63 247 7.8 8.7 0.00 0.00 0.00 44 1016.0
20260508165749 61 300 4.3 4.3 0.00 0.00 0.00 44 1016.3
20260508162748 59 240 0.0 0.0 0.00 0.00 0.00 50 1016.7
20260508155743 57 244 2.6 2.6 0.00 0.00 0.00 51 1017.4
20260508152742 56 288 3.5 3.5 0.00 0.00 0.00 52 1017.0
20260508145738 56 293 5.2 5.2 0.00 0.00 0.00 51 1017.0
20260508142736 55 221 2.6 2.6 0.00 0.00 0.00 53 1017.7
20260508135735 53 169 4.3 5.2 0.00 0.00 0.00 57 1017.7
20260508132733 53 281 3.5 3.5 0.00 0.00 0.00 59 1018.0
20260508125729 50 198 2.6 2.6 0.00 0.00 0.00 64 1018.4
20260508122724 48 282 3.5 3.5 0.00 0.00 0.00 67 1018.4
20260508115721 47 248 0.9 0.9 0.00 0.00 0.00 70 1018.0
20260508112720 40 227 0.0 0.0 0.00 0.00 0.00 87 1017.7
20260508105717 38 168 0.0 0.0 0.00 0.00 0.00 87 1017.4
20260508102712 37 180 0.0 0.0 0.00 0.00 0.00 87 1017.0
20260508095707 37 119 1.7 1.7 0.00 0.00 0.00 88 1017.0
20260508092702 37 192 0.0 0.0 0.00 0.00 0.00 86 1016.7
20260508085657 38 144 0.0 0.0 0.00 0.00 0.00 86 1016.7
20260508082655 38 144 0.0 0.0 0.00 0.00 0.00 84 1016.7
20260508075650 39 156 0.0 0.0 0.00 0.00 0.00 82 1016.3
20260508072650 41 130 0.0 0.0 0.00 0.00 0.00 78 1016.3
20260508065647 42 150 0.0 0.0 0.00 0.00 0.00 76 1016.7
20260508062644 47 18 0.9 0.9 0.00 0.00 0.00 63 1016.3
20260508055642 50 4 1.7 1.7 0.00 0.00 0.00 57 1016.3
20260508052642 50 359 1.7 1.7 0.00 0.00 0.00 55 1016.3
20260508045637 51 346 2.6 2.6 0.00 0.00 0.00 56 1016.0
20260508042636 52 342 3.5 3.5 0.00 0.00 0.00 54 1015.6
20260508035635 54 359 2.6 2.6 0.00 0.00 0.00 49 1015.6
20260508032630 55 341 3.5 3.5 0.00 0.00 0.00 47 1014.9
20260508025629 54 288 1.7 1.7 0.00 0.00 0.00 49 1014.5
20260508022626 53 216 0.0 0.0 0.00 0.00 0.00 53 1014.5
20260508015625 55 6 2.6 2.6 0.00 0.00 0.00 48 1013.9
20260508012622 55 354 1.7 1.7 0.00 0.00 0.00 47 1013.9
20260508005617 56 348 1.7 1.7 0.00 0.00 0.00 49 1013.2
20260508002615 57 315 0.0 0.0 0.00 0.00 0.00 49 1012.9
20260507235612 59 324 3.5 3.5 0.00 0.00 0.00 43 1012.5
20260507232612 60 355 3.5 4.3 0.00 0.00 0.00 42 1012.5
20260507225608 61 336 2.6 2.6 0.00 0.00 0.00 42 1012.1
20260507222605 63 24 2.6 2.6 0.00 0.00 0.00 37 1011.7
20260507215602 65 318 3.5 4.3 0.00 0.00 0.00 36 1011.4
20260507212559 66 338 1.7 1.7 0.00 0.00 0.00 34 1011.4
20260507205557 65 276 5.2 6.1 0.00 0.00 0.00 35 1011.4
20260507202555 66 332 2.6 2.6 0.00 0.00 0.00 33 1011.4